Location: Civry
(47.2902°N, 4.6156°E)
Time: 22:17:03
(UTC+00:00)

Cosmos 1606 Rocket - Pass Details

Date: 09 April 2020
Orbit: 602 x 633 km, 82.5° (Epoch: 23 May)

Event Time Altitude Azimuth Distance (km) Brightness Sun altitude
Rises 19:25:56 0° 196° (SSW) 2,897 6.9 -10.9°
Reaches altitude 10° 19:28:10 10° 200° (SSW) 1,999 6.1 -11.3°
Maximum altitude 19:32:34 62° 281° (WNW) 711 4.2 -12.0°
Drops below altitude 10° 19:37:02 10° 3° (N) 2,027 6.5 -12.6°
Sets 19:39:18 0° 7° (N) 2,941 7.3 -13.0°
